This demonstration page uses our WeatherBlox Daily Observations layout. Learn more.

Left ArrowRight Arrow

44.8408, -93.29828

Hourly Observations for May 23, 2015

Temp ( °F °C ) Dew Point ( °F °C ) Humidity (%) Winds ( mph kmh ) Pressure ( in mb ) Visibility ( mi km ) Precip ( " mm )
12:53 am 00:53 Partly Cloudy 59 15 39 3.9 48 48 ESE 5 7 30.19 1022 10 16 0.00 0.00
1:53 am 01:53 Mostly Clear 59 15 38 3.3 46 46 ESE 5 7 30.20 1023 10 16 0.00 0.00
2:53 am 02:53 Clear 57 13.9 38 3.3 49 49 Calm 30.20 1023 10 16 0.00 0.00
3:53 am 03:53 Mostly Clear 58 14.4 37 2.8 46 46 Calm 30.21 1023 10 16 0.00 0.00
4:53 am 04:53 Mostly Cloudy 52 11.1 41 5 66 66 Calm 30.22 1023 10 16 0.00 0.00
5:53 am 05:53 Mostly Cloudy 54 12.2 41 5 62 62 SW 5 7 30.23 1024 10 16 0.00 0.00
6:53 am 06:53 Mostly Cloudy 56 13.3 41 5 57 57 SSW 3 6 30.24 1024 10 16 0.00 0.00
7:53 am 07:53 Mostly Cloudy 59 15 43 6.1 56 56 Calm 30.24 1024 10 16 0.00 0.00
8:53 am 08:53 Mostly Cloudy 62 16.7 45 7.2 54 54 W 6 9 30.25 1025 10 16 0.00 0.00
9:53 am 09:53 Cloudy 64 17.8 45 7.2 50 50 SW 6 9 30.26 1025 10 16 0.00 0.00
10:53 am 10:53 Cloudy 66 18.9 44 6.7 45 45 NNW 10 17 30.23 1024 10 16 0.00 0.00
11:53 am 11:53 Cloudy 67 19.4 43 6.1 42 42 N 7 11 30.24 1024 10 16 0.00 0.00
12:53 pm 12:53 Cloudy 70 21.1 44 6.7 39 39 N 6 9 30.23 1024 10 16 0.00 0.00
1:53 pm 13:53 Mostly Cloudy 72 22.2 43 6.1 35 35 E 8 13 30.21 1023 10 16 0.00 0.00
2:53 pm 14:53 Cloudy 73 22.8 41 5 32 32 VRB 3 6 30.20 1023 10 16 0.00 0.00
3:53 pm 15:53 Cloudy 73 22.8 41 5 32 32 Calm 30.19 1022 10 16 0.00 0.00
4:53 pm 16:53 Mostly Cloudy 70 21.1 46 7.8 42 42 N 12 19 30.17 1022 10 16 0.00 0.00
5:07 pm 17:07 Mostly Cloudy 70 21.1 46 7.8 42 42 N 12 19 30.15 1021 10 16 0.00 0.00
5:53 pm 17:53 Mostly Cloudy 70 21.1 46 7.8 42 42 NNE 14 22 30.15 1021 10 16 0.00 0.00
6:53 pm 18:53 Mostly Cloudy 68 20 46 7.8 45 45 NNE 13 20 30.14 1021 10 16 0.00 0.00
7:53 pm 19:53 Mostly Cloudy 66 18.9 46 7.8 49 49 NE 13 20 30.13 1020 10 16 0.00 0.00
8:53 pm 20:53 Mostly Cloudy 64 17.8 46 7.8 52 52 NE 8 13 30.13 1020 10 16 0.00 0.00
9:53 pm 21:53 Mostly Cloudy 64 17.8 46 7.8 52 52 E 9 15 30.13 1020 10 16 0.00 0.00
10:53 pm 22:53 Mostly Cloudy 63 17.2 46 7.8 54 54 ENE 7 11 30.14 1021 10 16 0.00 0.00
11:53 pm 23:53 Cloudy 63 17.2 46 7.8 54 54 E 5 7 30.14 1021 10 16 0.00 0.00

Powered by AerisWeather